Location: Mittersill
(44.1801°N, 71.7142°W)
Time: 03:19:53
(UTC+00:00)

Cosmos 841 Rocket - Pass Details

Date: 10 September 2024
Orbit: 745 x 768 km, 74.0° (Epoch: 04 October)

Event Time Altitude Azimuth Distance (km) Brightness Sun altitude
Rises 23:36:00 0° 201° (SSW) 3,207 6.8 -6.2°
Reaches altitude 10° 23:38:22 10° 202° (SSW) 2,283 6.1 -6.6°
Maximum altitude 23:43:33 83° 290° (WNW) 767 3.6 -7.5°
Drops below altitude 10° 23:48:45 10° 19° (NNE) 2,283 5.9 -8.4°
Sets 23:51:07 0° 21° (NNE) 3,209 6.7 -8.8°
